Wind_Speed
25 25 26 26 27 27 27 27 26 26 26 26 27 28 29 29 30 30 31 31 31 31 30 31 31 32 31 31 31 30 30 30 30 31 31 30 29 29
26 26 27 28 28 29 29 28 27 28 27 27 28 28 29 30 30 31 31 31 32 32 31 31 32 32 32 32 32 31 31 31 30 31 31 31 30 30
28 27 28 29 30 29 29 28 28 29 29 28 28 28 29 30 31 31 31 31 31 31 32 31 31 32 32 33 33 32 32 32 31 31 31 31 30 30
27 28 28 28 28 29 29 30 30 30 30 29 29 29 30 31 32 32 32 32 31 31 32 32 31 32 33 33 33 33 33 33 32 31 32 31 31 30
27 28 28 29 28 29 30 31 31 31 31 31 31 31 31 31 32 32 33 33 32 32 32 32 32 33 33 33 33 33 33 33 32 32 32 32 32 32
28 29 29 29 29 30 30 31 31 32 32 32 32 32 32 32 32 32 32 32 32 33 33 33 33 33 33 33 33 33 33 33 33 33 33 33 33 33
28 29 29 29 29 29 29 30 30 31 32 32 32 33 33 33 33 33 32 31 31 31 32 32 32 33 33 33 34 34 34 34 34 34 34 34 33 33
28 28 27 27 27 28 29 29 29 30 30 31 32 33 33 32 32 32 31 31 31 30 31 31 32 32 32 33 33 34 34 34 34 34 34 34 34 34
26 27 27 27 27 28 28 28 29 29 30 31 30 30 31 31 31 31 32 31 31 31 31 31 31 32 33 33 33 34 34 34 34 34 34 35 35 34
26 26 26 26 26 27 27 28 29 29 29 29 28 28 29 29 30 30 31 31 31 31 31 31 32 33 33 33 34 34 34 35 35 35 35 35 35 34
27 26 26 26 26 26 27 28 29 30 29 29 28 29 29 28 28 29 30 31 31 32 32 33 32 32 34 34 35 36 35 35 35 36 35 35 35 34
27 27 27 26 26 27 27 28 28 29 29 29 29 29 29 29 29 30 30 30 31 32 33 34 33 33 33 34 35 35 36 35 35 35 35 34 34 33
27 27 28 28 28 28 28 27 27 27 28 28 29 29 30 30 30 31 31 31 31 32 32 33 32 32 32 32 34 34 34 34 34 34 35 34 34 32
27 27 28 28 28 28 28 27 27 27 28 28 28 29 30 31 31 31 31 31 31 31 31 31 30 31 31 31 31 32 33 33 33 33 34 33 33 33
26 26 26 26 26 26 26 27 27 28 28 28 29 29 30 31 31 30 31 31 32 32 31 31 31 29 29 30 30 31 31 31 31 32 32 32 31 31
26 26 25 25 25 26 26 27 27 27 28 29 29 29 29 30 30 31 31 31 30 31 31 31 32 31 29 28 29 29 30 30 30 31 30 30 30 29
26 25 25 25 26 27 27 26 27 27 28 28 28 28 29 29 30 31 31 31 30 30 30 30 30 30 30 29 29 28 29 29 29 30 30 30 29 29
26 25 25 25 26 26 26 26 26 27 27 28 28 28 29 29 30 31 31 31 30 30 30 29 29 29 29 30 30 30 29 28 29 30 30 30 29 29
26 26 25 25 25 25 26 26 26 26 27 28 28 29 29 30 30 30 30 31 30 30 30 30 30 30 29 29 29 30 29 28 28 28 29 29 29 29
26 26 26 25 25 25 25 25 26 27 27 28 29 29 29 29 29 29 29 29 28 28 28 29 30 30 29 29 29 28 28 28 27 28 28 29 29 29
26 26 25 25 25 25 25 25 26 26 27 27 28 27 27 27 27 26 26 27 27 27 26 27 28 29 29 28 28 27 27 27 27 28 28 29 29 29
25 25 24 24 24 24 24 25 25 26 26 26 25 25 25 25 25 25 24 24 25 25 26 26 27 28 28 27 26 26 26 27 27 27 28 28 28 28
24 24 23 24 24 24 25 25 25 25 24 24 23 23 23 23 23 24 24 24 25 26 26 26 26 27 27 26 26 26 26 26 26 26 27 27 27 27
Wind_Direction
277 274 269 269 268 267 266 265 263 263 265 266 264 262 261 259 260 260 262 262 263 263 262 260 259 259 259 260 259 259 260 260 259 259 258 258 258 258
275 273 273 271 270 269 268 266 264 265 264 264 263 263 262 260 261 262 262 262 262 262 262 260 259 259 259 259 259 259 259 260 261 260 258 257 257 258
276 274 273 271 270 271 269 268 266 265 264 264 263 264 264 262 263 263 262 262 261 260 260 259 259 259 259 259 259 259 259 260 261 260 258 258 258 259
277 276 273 273 272 270 268 268 268 266 265 264 264 264 265 264 263 262 262 262 262 262 260 259 260 260 259 259 259 258 258 259 260 259 258 258 258 259
279 277 275 274 273 270 269 269 268 267 267 267 267 267 267 266 265 262 262 262 262 261 260 260 260 260 260 259 259 258 258 259 258 258 257 257 258 259
281 280 278 276 274 273 271 271 269 268 269 268 267 268 267 266 265 263 262 263 262 260 260 260 260 260 259 258 258 258 259 259 258 258 257 257 258 259
285 282 281 277 275 274 272 272 270 269 268 269 267 266 266 266 266 264 262 261 261 261 262 261 261 260 259 258 258 259 260 259 259 259 258 258 259 260
286 285 283 279 275 273 273 272 271 270 269 269 267 266 265 265 264 262 260 260 259 260 261 262 262 259 259 258 258 260 260 259 259 259 259 259 260 261
289 287 284 281 277 274 272 273 273 271 270 270 268 266 265 264 263 261 260 260 260 261 261 261 262 261 260 260 260 260 260 259 258 259 259 259 260 261
289 288 287 284 280 278 275 274 273 272 272 269 266 265 265 265 263 261 260 260 261 262 262 264 264 263 261 261 262 262 263 261 260 260 260 259 260 260
288 287 286 285 284 282 279 277 275 273 272 269 267 265 264 265 264 263 263 263 262 261 262 264 264 263 263 262 262 263 264 262 261 260 259 258 258 258
289 287 286 285 285 284 282 278 276 274 271 269 267 266 266 266 265 264 264 264 264 263 263 264 263 264 264 264 263 262 263 262 260 258 256 255 257 257
289 288 287 285 284 284 282 280 276 275 274 272 269 267 266 266 267 267 266 266 266 265 265 264 264 264 265 264 263 262 261 259 258 257 255 255 256 256
292 291 289 287 285 283 281 279 278 276 274 272 270 267 266 266 267 267 267 267 267 266 265 264 265 265 265 264 263 262 261 259 258 256 255 255 256 256
293 293 291 289 287 284 281 279 278 277 275 273 271 269 268 267 266 266 267 268 268 266 265 264 264 265 264 264 264 263 261 260 258 257 255 254 255 255
292 292 290 287 286 284 282 280 278 277 276 274 273 271 269 268 267 267 268 268 268 266 265 264 264 263 263 264 264 263 262 261 259 258 254 253 254 255
292 292 289 287 286 286 284 282 280 279 277 275 274 271 270 268 267 267 267 268 266 265 264 263 262 262 262 263 264 264 261 259 258 257 256 254 253 253
294 293 292 291 289 287 285 283 281 279 277 276 274 273 272 270 269 268 267 266 265 263 263 261 262 262 261 262 263 263 262 259 256 255 255 253 252 252
296 295 292 291 290 289 287 284 283 282 279 277 276 275 274 273 271 269 267 266 265 263 262 262 262 262 261 261 262 262 260 257 255 253 254 253 252 251
296 295 293 290 290 289 288 287 285 284 282 279 278 276 275 274 273 271 268 266 264 263 263 263 263 262 262 261 260 260 258 256 255 253 253 253 252 252
295 295 292 291 290 291 291 290 289 287 285 283 280 277 277 275 273 270 268 264 263 263 263 264 264 263 261 260 259 257 256 255 255 254 252 251 251 251
295 295 294 293 292 292 293 292 291 290 289 286 281 278 278 275 272 268 266 265 263 263 264 264 263 262 261 258 256 254 253 254 255 254 252 251 251 252
294 294 294 294 293 294 294 293 292 290 288 286 281 278 278 276 274 270 267 266 265 265 265 263 262 261 259 256 254 252 252 253 254 253 252 251 252 253
Height
5780 5780 5780 5780 5780 5780 5780 5781 5782 5782 5783 5783 5783 5783 5784 5786 5787 5787 5788 5789 5790 5791 5791 5792 5793 5794 5795 5796 5797 5798 5799 5800 5801 5802 5803 5804 5805 5806
5772 5772 5772 5771 5772 5772 5772 5773 5773 5774 5775 5775 5775 5775 5776 5777 5778 5779 5780 5780 5781 5782 5782 5783 5784 5785 5787 5788 5788 5789 5790 5791 5792 5794 5795 5796 5797 5798
5765 5764 5764 5763 5763 5764 5764 5764 5765 5765 5766 5767 5767 5767 5767 5768 5769 5770 5770 5771 5772 5773 5773 5774 5775 5776 5777 5778 5779 5780 5782 5783 5784 5785 5786 5788 5789 5790
5757 5756 5755 5755 5755 5755 5755 5756 5756 5757 5757 5758 5759 5759 5759 5759 5760 5761 5761 5762 5762 5763 5764 5765 5766 5767 5768 5769 5770 5771 5772 5774 5775 5776 5778 5779 5780 5781
5749 5748 5747 5747 5746 5746 5746 5747 5747 5747 5748 5749 5749 5750 5750 5750 5750 5751 5752 5752 5753 5754 5754 5755 5756 5757 5758 5759 5760 5762 5763 5765 5766 5767 5768 5770 5771 5772
5740 5739 5738 5738 5737 5737 5737 5737 5737 5738 5739 5739 5740 5740 5740 5741 5741 5741 5742 5743 5744 5744 5745 5746 5746 5747 5748 5750 5751 5752 5754 5755 5756 5758 5759 5760 5761 5763
5731 5730 5729 5728 5728 5728 5728 5728 5728 5728 5729 5729 5730 5730 5731 5731 5732 5732 5732 5733 5734 5735 5735 5736 5737 5737 5738 5740 5741 5742 5743 5745 5746 5748 5749 5750 5751 5753
5723 5722 5720 5720 5719 5719 5719 5719 5719 5719 5719 5720 5720 5721 5721 5721 5721 5722 5723 5724 5725 5727 5726 5727 5727 5728 5729 5730 5731 5733 5734 5735 5736 5738 5739 5740 5741 5742
5715 5714 5713 5711 5710 5710 5710 5709 5709 5709 5710 5710 5710 5710 5710 5711 5711 5712 5713 5714 5716 5716 5717 5717 5718 5718 5719 5720 5722 5723 5724 5725 5726 5728 5729 5730 5731 5732
5707 5706 5705 5703 5702 5701 5700 5700 5700 5700 5700 5700 5701 5701 5701 5701 5701 5702 5703 5704 5705 5706 5707 5708 5708 5709 5710 5710 5711 5712 5713 5714 5716 5717 5718 5720 5721 5722
5700 5698 5697 5695 5694 5693 5692 5692 5692 5691 5690 5690 5691 5691 5691 5691 5692 5692 5693 5694 5695 5696 5697 5697 5698 5698 5699 5700 5701 5702 5703 5703 5705 5707 5708 5709 5711 5712
5692 5690 5689 5687 5686 5684 5684 5683 5683 5682 5682 5681 5681 5682 5682 5682 5683 5683 5684 5684 5685 5687 5687 5687 5688 5688 5690 5690 5690 5691 5692 5693 5694 5696 5698 5699 5701 5702
5684 5682 5680 5679 5677 5676 5675 5674 5674 5673 5673 5672 5672 5673 5673 5673 5673 5673 5674 5675 5675 5676 5677 5676 5677 5678 5678 5680 5680 5680 5681 5682 5684 5685 5687 5689 5691 5693
5676 5674 5672 5670 5668 5667 5666 5666 5665 5664 5664 5663 5663 5664 5664 5664 5664 5664 5664 5665 5665 5666 5666 5666 5667 5668 5669 5669 5670 5671 5671 5672 5674 5675 5677 5679 5681 5683
5668 5666 5664 5662 5660 5659 5658 5657 5656 5656 5655 5655 5655 5654 5654 5654 5654 5654 5655 5655 5655 5655 5656 5656 5657 5658 5658 5659 5660 5661 5662 5663 5664 5666 5668 5670 5672 5674
5660 5658 5656 5654 5653 5651 5650 5649 5648 5647 5646 5646 5645 5645 5644 5644 5645 5645 5645 5646 5646 5647 5646 5646 5647 5648 5648 5649 5650 5651 5652 5653 5655 5656 5659 5661 5663 5665
5653 5651 5649 5647 5645 5643 5642 5641 5639 5638 5637 5637 5636 5635 5635 5635 5635 5635 5635 5636 5636 5637 5637 5637 5637 5638 5639 5640 5641 5642 5642 5644 5645 5647 5649 5652 5654 5656
5645 5643 5641 5639 5637 5635 5634 5632 5631 5630 5629 5628 5627 5627 5626 5626 5626 5625 5625 5626 5626 5627 5627 5628 5628 5629 5630 5631 5632 5632 5633 5635 5636 5638 5640 5643 5646 5648
5637 5635 5633 5631 5629 5627 5626 5624 5623 5622 5621 5619 5619 5618 5617 5616 5616 5616 5615 5616 5616 5617 5618 5618 5619 5619 5621 5622 5623 5623 5625 5626 5627 5630 5632 5634 5637 5640
5630 5627 5625 5623 5621 5620 5618 5617 5615 5613 5612 5611 5609 5609 5608 5607 5606 5606 5605 5606 5606 5607 5608 5608 5609 5610 5611 5612 5614 5615 5616 5617 5619 5621 5624 5626 5628 5631
5622 5620 5618 5616 5614 5612 5610 5608 5607 5605 5603 5602 5600 5599 5598 5597 5596 5596 5596 5596 5597 5598 5599 5600 5600 5600 5601 5603 5605 5607 5608 5609 5610 5613 5615 5617 5620 5623
5614 5612 5610 5608 5606 5604 5602 5600 5598 5596 5595 5593 5592 5590 5589 5588 5588 5587 5587 5588 5588 5589 5590 5590 5591 5591 5593 5594 5596 5598 5599 5601 5602 5604 5606 5609 5611 5614
5607 5606 5604 5601 5599 5597 5594 5592 5590 5588 5587 5585 5583 5582 5581 5580 5579 5579 5579 5579 5580 5581 5581 5581 5582 5582 5584 5585 5587 5589 5591 5592 5594 5596 5598 5600 5602 5605